STARLINK-11172, 60193

Orbit data source: Space-Track

STARLINK-11172, 60193 is a payload satellite owned by SpaceX/Seattle (US) in LEO that was launched on Wed, 03 Jul 2024 UTC via an FALCON 9 launch vehicle from the Air Force Eastern Test Range (AFETR). Payload-class satellites include a variety of spacecraft equipped with specific instruments for various scientific and technological missions. These include communications satellites like Starlink; space stations such as the ISS; scientific satellites like the Hubble; Earth observation satellites from companies like Planet Labs, Umbra, and HawkEye 360; GPS; miniature CubeSats for education and research; and military/defense satellites.

Loading next visibility...
Identifier
60193, 2024-124L
Orbit
LEO
Last TLE update
18 hours ago
Origin
Manufacturer
SpaceX/Seattle
Mission
Operational Commercial Communications
Bus & Motor
STARLINK V2M, Unknown motor
Mass
730 kg wet, ~700 kg dry
Launch date (UTC)
2024-07-03 (10 months ago)
Launch vehicle
FALCON 9
Launch site
Air Force Eastern Test Range (AFETR)
Object type
Payload
Rocket body
Debris
Shape & HBR
Box + 2 Pan, 29 m
Radar Cross Section
36.964 m², Large (>1 m²)

Expand to show TLE details & history

TLE from 18 hours ago
0 STARLINK-11172
1 60193U 24124L   25128.52742434  .00005725  00000-0  52052-4 0  9998
2 60193  53.1583 225.6841 0000989 103.5021 256.6107 15.69721410 48603
Epoch: 2025-05-08T12:39Z
Definitive object data (Epoch: 2025-05-08T12:39:29.462Z)
Latitude
-0.00006°
Longitude
169.21466°
Altitude
360.763 km
Speed
7.694 km/s
True Right ascension
15h 02m 44s
True Declination
0° 00' 00"
Sunlit
Object was in full shadow at TLE epoch
Visualization TLE readout
Latitude
-33.85791°
Longitude
135.49544°
Altitude
370.904 km
Speed
7.686 km/s
Apparent Right ascension
08h 45m 07s
Apparent Declination
-68° 55' 55"
Sunlit
Object is in full shadow
Visualization observer readout
Local Sidereal Time
14:57:23
Azimuth
207.037° SW
Elevation
-37.845°
Doppler factor
1
Orbital elements
Apogee altitude
360.621 km
Perigee altitude
359.289 km
Semi-major axis
6,738.092 km
Eccentricity
0.0000989
Inclination
53.1583°
RAAN
225.6841°
Arg. of periapsis
103.5021°
True anomaly
256.59968°
Mean anomaly
256.6107°
Eccentric anomaly
256.60519°
Mean motion
3.92408 °/min
BSTAR
0.000052052
Orbital period
91.74 mins
Loading maneuver chart data...
Loading SW <> Apogee altitude chart data...
Loading historical data...
Loading historical data...
Loading historical data...
Loading historical data...
Loading historical data...
Loading historical data...
Loading historical data...

STARLINK-11172 Visibility forecast

Observer location: undefined°, undefined°

Span
Click to sort rows by Start time (UTC) header in descending order
Start Az.
Max El. time (UTC)
Max El. Az.
Max El.
End time (UTC)
End Az.
5 mins2025-05-09 08:41:29.854Z203.704° SW2025-05-09 08:43:29.854Z158.193° S31.304°2025-05-09 08:46:29.854Z64.801° ENE
|